Spokane Fairchild, WA
on Monday, November 19, 2012

Monday
Previous Day Next Day
Daily Summary
 ActualAverage (KGEG)Record (KGEG)
Temperature
Mean Temperature °F 34°F  
Max Temperature 46°F 40°F 60°F (1936)
Min Temperature 39°F 29°F -9°F (1985)
Degree Days
Heating Degree Days 22 31  
Month to date heating degree days 517  
Since 1 July heating degree days 1305  
Cooling Degree Days 0 0  
Month to date cooling degree days 0  
Year to date cooling degree days 450  
Moisture
Dew Point 44°F   
Average Humidity 100    
Maximum Humidity 100    
Minimum Humidity 99    
Precipitation
Precipitation 0.80 in 0.08 in 1.24 in (1996)
Month to date precipitation 1.39  
Year to date precipitation 13.35  
Snow
Snow 0.00 in 0.30 in 6.50 in (1897)
Month to date snowfall 3.4  
Since 1 July snowfall 3.5  
Since 1 September snowfall 3.5  
Snow Depth in   
Wind
Wind Speed 16 mph   
Max Wind Speed 25 mph   
Max Gust Speed 37 mph   
Visibility 10 miles   
Events Rain   

Key: T is trace of precipitation, MM is missing value
Source: NWS Daily Summary
Time(PST)TemperatureDew PointHumidity Pressure Visibility Wind DirectionWind SpeedGust SpeedPrecipitationEvents Conditions
12:07 AM 39.2°F 39.2°F 100% 29.81 in 10.0 miles SE 10.4 mph - N/A   Overcast
12:20 AM 39.2°F 39.2°F 100% 29.81 in 10.0 miles SE 10.4 mph - N/A Rain Light Rain
12:50 AM 39.2°F 39.2°F 100% 29.78 in 10.0 miles SE 15.0 mph - N/A Rain Light Rain
12:58 AM 39.4°F 39.4°F 100% 29.82 in 10.0 miles SE 16.1 mph - 0.00 in Rain Light Rain
1:58 AM 39.0°F 39.0°F 100% 29.84 in 10.0 miles SSE 10.4 mph 21.9 mph 0.02 in Rain Light Rain
2:18 AM 39.2°F 39.2°F 100% 29.80 in 9.0 miles SSE 11.5 mph 20.7 mph N/A Rain Rain
2:38 AM 39.2°F 39.2°F 100% 29.81 in 10.0 miles South 13.8 mph - N/A Rain Rain
2:58 AM 39.7°F 39.7°F 100% 29.86 in 10.0 miles South 11.5 mph - 0.10 in Rain Light Rain
3:58 AM 40.1°F 40.1°F 100% 29.83 in 9.0 miles SSE 11.5 mph - 0.04 in Rain Light Rain
4:03 AM 41.0°F 41.0°F 100% 29.79 in 9.0 miles SSE 13.8 mph - N/A Rain Light Rain
4:19 AM 41.0°F 41.0°F 100% 29.79 in 10.0 miles SSE 13.8 mph - N/A Rain Light Rain
4:34 AM 41.0°F 41.0°F 100% 29.78 in 10.0 miles SE 18.4 mph 23.0 mph N/A Rain Light Rain
4:39 AM 41.0°F 41.0°F 100% 29.79 in 10.0 miles SE 20.7 mph 24.2 mph N/A Rain Light Rain
4:58 AM 40.6°F 40.6°F 100% 29.82 in 10.0 miles SE 19.6 mph - 0.02 in Rain Light Rain
5:28 AM 41.0°F 41.0°F 100% 29.78 in 9.0 miles SSE 18.4 mph 24.2 mph N/A Rain Light Rain
5:38 AM 41.0°F 41.0°F 100% 29.78 in 10.0 miles SSE 19.6 mph - N/A Rain Light Rain
5:53 AM 41.0°F 41.0°F 100% 29.77 in 10.0 miles SE 18.4 mph 23.0 mph N/A Rain Light Rain
5:58 AM 40.6°F 40.6°F 100% 29.81 in 10.0 miles SSE 17.3 mph 23.0 mph 0.03 in Rain Light Rain
6:55 AM 40.3°F 40.3°F 100% 29.82 in 10.0 miles SSE 20.7 mph 27.6 mph 0.06 in Rain Light Rain
7:25 AM 41.0°F 41.0°F 100% 29.77 in 8.0 miles SSE 21.9 mph 28.8 mph N/A Rain Light Rain
7:55 AM 39.2°F 39.2°F 100% 29.77 in 10.0 miles SE 21.9 mph 25.3 mph N/A Rain Light Rain
8:55 AM 41.4°F 41.4°F 100% 29.80 in 10.0 miles SE 20.7 mph 27.6 mph 0.02 in Rain Light Rain
9:58 AM 42.8°F 42.8°F 100% 29.80 in 10.0 miles SSE 17.3 mph 23.0 mph 0.02 in Rain Light Rain
10:55 AM 44.6°F 44.6°F 100% 29.73 in 10.0 miles SSE 21.9 mph 31.1 mph N/A Rain Light Rain
11:55 AM 44.6°F 44.6°F 100% 29.71 in 10.0 miles SSE 18.4 mph 29.9 mph N/A Rain Light Rain
12:01 PM 44.6°F 44.6°F 100% 29.71 in 10.0 miles SSE 23.0 mph 29.9 mph N/A Rain Light Rain
12:02 PM 44.6°F 44.6°F 100% 29.71 in 10.0 miles SSE 20.7 mph 29.9 mph N/A   Mostly Cloudy
12:03 PM 44.6°F 44.6°F 100% 29.71 in 10.0 miles SSE 19.6 mph 26.5 mph N/A   Mostly Cloudy
12:58 PM 46.4°F 46.4°F 100% 29.72 in 10.0 miles SSE 21.9 mph 28.8 mph 0.00 in   Light Drizzle
1:00 PM 46.4°F 46.4°F 100% 29.68 in 10.0 miles SSE 18.4 mph 28.8 mph N/A   Scattered Clouds
1:01 PM 46.4°F 46.4°F 100% 29.68 in 10.0 miles SSE 18.4 mph 28.8 mph N/A Rain Light Rain
1:05 PM 46.4°F 46.4°F 100% 29.68 in 10.0 miles SSE 18.4 mph 26.5 mph N/A   Scattered Clouds
1:18 PM 46.4°F 46.4°F 100% 29.67 in 10.0 miles SSE 19.6 mph 29.9 mph N/A Rain Light Rain
1:58 PM 46.9°F 46.9°F 100% 29.70 in 10.0 miles SSE 20.7 mph 28.8 mph 0.00 in Rain Light Rain
2:58 PM 46.0°F 46.0°F 100% 29.69 in 10.0 miles SSE 23.0 mph 31.1 mph 0.08 in Rain Light Rain
3:58 PM 45.7°F 45.7°F 100% 29.69 in 10.0 miles SSE 25.3 mph 32.2 mph 0.05 in Rain Light Rain
4:48 PM 46.4°F 46.4°F 100% 29.64 in 10.0 miles SSE 19.6 mph 31.1 mph N/A Rain Light Rain
4:58 PM 46.0°F 46.0°F 100% 29.63 in 10.0 miles SSE 21.9 mph 36.8 mph 0.03 in Rain Light Rain
5:06 PM 46.4°F 46.4°F 100% 29.64 in 10.0 miles SSE 21.9 mph 29.9 mph N/A Rain Light Rain
5:07 PM 46.4°F 46.4°F 100% 29.64 in 10.0 miles SSE 21.9 mph 29.9 mph N/A Rain Light Rain
5:38 PM 46.4°F 46.4°F 100% 29.65 in 10.0 miles SSE 21.9 mph 31.1 mph N/A Rain Light Rain
5:58 PM 46.4°F 46.4°F 100% 29.65 in 10.0 miles South 15.0 mph 29.9 mph 0.01 in Rain Light Rain
6:58 PM 46.6°F 46.6°F 100% 29.67 in 10.0 miles South 15.0 mph 25.3 mph 0.00 in Rain Light Rain
7:58 PM 45.5°F 45.5°F 100% 29.70 in 10.0 miles South 11.5 mph - 0.02 in Rain Light Rain
8:13 PM 46.4°F 46.4°F 100% 29.70 in 10.0 miles South 9.2 mph - N/A Rain Light Rain
8:18 PM 46.4°F 46.4°F 100% 29.71 in 10.0 miles South 11.5 mph - N/A Rain Light Rain
8:43 PM 46.4°F 46.4°F 100% 29.71 in 10.0 miles South 11.5 mph - N/A Rain Light Rain
8:53 PM 46.4°F 46.4°F 100% 29.71 in 10.0 miles South 11.5 mph - N/A Rain Light Rain
8:58 PM 46.4°F 46.4°F 100% 29.71 in 9.0 miles South 11.5 mph - 0.06 in Rain Light Rain
9:12 PM 46.4°F 46.4°F 100% 29.72 in 10.0 miles South 9.2 mph - N/A Rain Light Rain
9:52 PM 46.4°F 46.4°F 100% 29.73 in 7.0 miles SSW 10.4 mph - N/A Rain Rain
9:58 PM 45.7°F 45.5°F 99% 29.74 in 7.0 miles SSW 10.4 mph - 0.08 in Rain Rain
10:28 PM 44.6°F 44.6°F 100% 29.74 in 7.0 miles SW 16.1 mph - N/A Rain Rain
10:48 PM 44.6°F 44.6°F 100% 29.75 in 10.0 miles SW 16.1 mph 24.2 mph N/A Rain Light Rain
10:58 PM 45.0°F 45.0°F 100% 29.75 in 9.0 miles SW 15.0 mph - 0.10 in Rain Rain
11:53 PM 44.6°F 44.6°F 100% 29.75 in 10.0 miles South 11.5 mph - N/A Rain Light Rain
11:58 PM 44.4°F 44.4°F 100% 29.76 in 10.0 miles South 16.1 mph 19.6 mph 0.06 in Rain Light Rain
Moon Phase
Nov. 19 Nov. 20 Nov. 28 Dec. 06 Dec. 13
Sunrise:07:02 AM (PST) Moon Rise:11:57 AM (PST)11/19
Sunset:04:09 PM (PST) Moon Set:10:53 PM (PST)11/19

Copyright © 2014 The Weather Underground, Inc.